Starlink 32610

operational
NORAD ID: 61971 Int'l Des: 2024-210 Owner: SPXS Country: US Constellation: starlink
LEOCIRCULAR

About Starlink 32610

Description loading...

Live Position

Loading 3D Globe...

Upcoming Passes

Altitude History

Altitude vs Time

uPlot chart will show altitude changes over time

Two-Line Element Set

1 61971U 24210N 25350.55926170 .00021125 00000-0 77426-3 0 9993
2 61971 43.0015 289.5236 0001472 268.9561 91.1122 15.27611386 62201
Epoch: Dec 16, 2025 • Age: 19 hours

Current Status

Altitude 485.0 km
Velocity 7.62 km/s
Sub-Earth Point -13.55°S, 61.52°E
Launch Date Nov 14, 2024
Age 1 years
Type internet

Technical Details

Classification Payload
Mass 730.00 kg
Dry Mass 700.00 kg
Total Mass 730.00 kg
Length 0.30 m
Diameter 4.10 m
Span 29.00 m
Shape Box + pan
Manufacturer SPXS
Bus Type Starlink V2M
Phase Status In Orbit
Owner/State SPXS/US

Large Constellations

Loading constellations...